TimeADT,TemperatureF,Dew PointF,Humidity,Sea Level PressureIn,VisibilityMPH,Wind Direction,Wind SpeedMPH,Gust SpeedMPH,PrecipitationIn,Events,Conditions,WindDirDegrees,DateUTC
12:00 AM,37.4,33.8,87,30.14,9.0,WSW,2.3,-,N/A,,Clear,240,2012-10-27 03:00:00
1:00 AM,39.2,35.6,87,30.13,9.0,Calm,Calm,-,N/A,,Clear,0,2012-10-27 04:00:00
2:00 AM,35.6,-9999,N/A,30.15,9.0,Calm,Calm,-,N/A,,Clear,0,2012-10-27 05:00:00
3:00 AM,35,,,30.15,10,SW,2.3,,,,,220,2012-10-27 06:00:00
3:00 AM,33.8,-9999,N/A,30.15,9.0,SW,2.3,-,N/A,,Clear,230,2012-10-27 06:00:00
4:00 AM,33.8,-9999,N/A,30.14,9.0,Calm,Calm,-,N/A,,Clear,0,2012-10-27 07:00:00
5:00 AM,33.8,-9999,N/A,30.14,9.0,WSW,2.3,-,N/A,,Clear,240,2012-10-27 08:00:00
6:00 AM,33.8,-9999,N/A,30.14,9.0,Calm,Calm,-,N/A,,Clear,0,2012-10-27 09:00:00
7:00 AM,33.8,-9999,N/A,30.14,9.0,Calm,Calm,-,N/A,,Clear,0,2012-10-27 10:00:00
8:00 AM,33.8,-9999,N/A,30.14,9.0,Calm,Calm,-,N/A,,Clear,0,2012-10-27 11:00:00
9:00 AM,38,35,82,30.15,10,NNW,3.5,,,,,330,2012-10-27 12:00:00
9:00 AM,37.4,33.8,87,30.15,9.0,NW,4.6,-,N/A,,Clear,320,2012-10-27 12:00:00
10:00 AM,44.6,33.8,66,30.15,9.0,NNE,3.5,-,N/A,,Clear,30,2012-10-27 13:00:00
11:00 AM,48.2,33.8,58,30.17,9.0,Variable,2.3,-,N/A,,Clear,0,2012-10-27 14:00:00
12:00 PM,53.6,33.8,47,30.15,9.0,ENE,5.8,-,N/A,,Clear,70,2012-10-27 15:00:00
1:00 PM,57.2,32.0,38,30.13,9.0,East,4.6,-,N/A,,Clear,90,2012-10-27 16:00:00
1:12 PM,57.2,32.0,38,30.13,4.0,Variable,3.5,-,N/A,,Haze,0,2012-10-27 16:12:00
1:14 PM,57.2,32.0,38,30.13,2.2,Variable,2.3,-,N/A,,Haze,0,2012-10-27 16:14:00
1:15 PM,57.2,32.0,38,30.13,1.8,Variable,3.5,-,N/A,,Haze,0,2012-10-27 16:15:00
1:22 PM,57.2,30.2,36,30.13,2.0,Variable,2.3,-,N/A,,Haze,0,2012-10-27 16:22:00
1:24 PM,57.2,30.2,36,30.13,3.0,Variable,2.3,-,N/A,,Haze,0,2012-10-27 16:24:00
1:35 PM,57.2,32.0,38,30.13,6.0,Variable,2.3,-,N/A,,Haze,0,2012-10-27 16:35:00
2:00 PM,59.0,30.2,34,30.12,9.0,Calm,Calm,-,N/A,,Clear,0,2012-10-27 17:00:00
3:00 PM,62,26,15,30.11,10,ENE,2.3,,,,,70,2012-10-27 18:00:00
3:00 PM,62.6,26.6,26,30.10,9.0,Variable,2.3,-,N/A,,Clear,0,2012-10-27 18:00:00
4:00 PM,64.4,24.8,22,30.09,9.0,East,6.9,-,N/A,,Clear,80,2012-10-27 19:00:00
5:00 PM,62.6,24.8,24,30.09,9.0,East,9.2,-,N/A,,Clear,90,2012-10-27 20:00:00
6:00 PM,59.0,28.4,31,30.09,9.0,ENE,9.2,-,N/A,,Clear,60,2012-10-27 21:00:00
7:00 PM,53.6,32.0,44,30.11,9.0,NE,6.9,-,N/A,,Clear,40,2012-10-27 22:00:00
8:00 PM,51.8,37.4,58,30.11,9.0,NE,9.2,-,N/A,,Clear,50,2012-10-27 23:00:00
9:00 PM,50,41,63,30.13,10,NE,6.9,,,,,50,2012-10-28 00:00:00
9:00 PM,50.0,41.0,71,30.13,9.0,NE,6.9,-,N/A,,Clear,50,2012-10-28 00:00:00
10:00 PM,48.2,41.0,76,30.15,9.0,NE,8.1,-,N/A,,Clear,40,2012-10-28 01:00:00
11:00 PM,44.6,41.0,87,30.15,9.0,NNE,6.9,-,N/A,,Clear,20,2012-10-28 02:00:00